Regional Weather Roundup
Issued by NWS Green Bay, WI

Home | Current Version | Previous Version | Graphics & Text | Print | Product List | Glossary Off
Versions: 1 2 3 4 5 6 7 8 9 10 11 12 13 14 15 16 17 18 19 20 21 22 23 24 25 26 27 28 29 30 31 32 33 34 35 36 37 38 39 40 41 42 43 44 45 46 47 48 49 50

000
ASUS43 KGRB 201759
RWRGRB

NORTH-CENTRAL AND NORTHEAST WISCONSIN REGIONAL WEATHER ROUNDUP
NATIONAL WEATHER SERVICE GREEN BAY WI
100 PM CDT WED AUG 20 2014

WIZ005-009-010>012-018-019-201900-
NORTH CENTRAL WISCONSIN

CITY           SKY/WX    TMP DP  RH WIND       PRES   REMARKS
IRONWOOD       CLOUDY    64  61  88 NW5       29.90R
MANITOWISH WTR NOT AVBL
ARBOR VITAE    NOT AVBL
EAGLE RIVER    NOT AVBL
LAND O LAKES   NOT AVBL
RHINELANDER    CLOUDY    66  58  75 W7        29.94R
PHILLIPS       CLOUDY    67  60  78 NW3       29.91S
ANTIGO         NOT AVBL
TOMAHAWK       NOT AVBL
MERRILL        NOT AVBL
$$

WIZ013-073-201900-
NORTHEAST WISCONSIN

CITY           SKY/WX    TMP DP  RH WIND       PRES   REMARKS
IRON MOUNTAIN  CLOUDY    67  59  75 N8        29.89R
MARINETTE      CLOUDY    68  61  77 S7        29.88R
$$

WIZ017-030-035>037-045-201900-
CENTRAL WISCONSIN

CITY           SKY/WX    TMP DP  RH WIND       PRES   REMARKS
MEDFORD        NOT AVBL
WAUSAU         CLOUDY    67  60  78 S3        29.90R
MOSINEE        CLOUDY    66  63  88 CALM      29.93R
MARSHFIELD     CLOUDY    68  60  75 CALM      29.91F
WISC RAPIDS    PTSUNNY   74  61  63 VRB5      29.91F
STEVENS POINT  NOT AVBL
WAUPACA        NOT AVBL
SHAWANO        CLOUDY    70  61  73 W3        29.90R
CLINTONVILLE   NOT AVBL
$$

WIZ038-039-048-051-201900-
FOX VALLEY

CITY           SKY/WX    TMP DP  RH WIND       PRES   REMARKS
NWS GREEN BAY  CLOUDY    69  62  78 NW5       29.90R
APPLETON       PTSUNNY   70  61  73 NW6       29.91R
OSHKOSH        MOSUNNY   75  64  68 VRB5      29.89S
FOND DU LAC    PTSUNNY   75  65  70 NE7       29.90R
$$

WIZ022-050-052-201900-
EAST CENTRAL WISCONSIN

CITY           SKY/WX    TMP DP  RH WIND       PRES   REMARKS
STURGEON BAY   CLOUDY    66  61  82 W3        29.90R
MANITOWOC      NOT AVBL
SHEBOYGAN      PTSUNNY   76  63  64 NW8       29.89R
$$

LMZ563-521-522-541>543-201900-
LAKESHORE

STATION/POSITION TIME  TEMP    WIND        PRES    VSBY  WAVE
                       AIR SEA DIR/SP/G                  HT/PER
                 (UTC) (F)     (DEG/KT/KT) (MB)    (MI)  (FT/S)
SHEBOYGAN LKSHOR 1700   65 65   60/  6/  7 1012.0R
KEWAUNEE LKSHORE 1700   68     310/  4/  6 1011.1S
NORTHPORT PIER   1700   64     320/  4/  6 1011.5R
N MID LAKE BUOY  1700   61 62  290/  8/  8 1010.7R         1/ 3
S GREEN BAY BUOY 1700   66     VRB  2      1013.0S
CHAMBERS ISLAND  1700   68      70/  1/  3 1011.9S
MENOMINEE LKSHOR 1700   65     130/  5/  6 1012.4R
$$



USA.gov is the U.S. government's official web portal to all federal, state and local government web resources and services.